{"data":{"norad_id":67275,"epoch":"2026-05-25T03:39:28.706976Z","epoch_age_seconds":55885,"freshness":"FRESH","line1":"1 67275U 25313AD  26145.15241559  .00006385  00000+0  27956-3 0  9994","line2":"2 67275  97.3913 220.0728 0015382  90.1179 270.1820 15.22271361 22440","mean_motion":15.22271361,"eccentricity":0.0015382,"inclination_deg":97.3913,"raan_deg":220.0728,"arg_perigee_deg":90.1179,"mean_anomaly_deg":270.182,"bstar":0.00027956,"rev_number":2244,"period_min":94.595486513919,"perigee_km":488.41284964804,"apogee_km":509.56964699117,"semimajor_km":6877.1282483196,"source":"CELESTRAK","updated_at":"2026-05-25T13:38:06.851655Z"}}